Location: Izdebno
(52.6670°N, 16.2170°E)
Time: 07:15:10
(UTC+02:00)

Vanguard 2 Rocket - Pass Details

Date: 27 February 2024
Orbit: 555 x 3307 km, 32.9° (Epoch: 24 April)

Event Time Altitude Azimuth Distance (km) Brightness Sun altitude
Rises 12:37:10 0° 193° (SSW) 3,931 11.4 28.6°
Reaches altitude 10° 12:41:26 10° 167° (SSE) 3,466 11.2 28.5°
Maximum altitude 12:45:24 14° 141° (SE) 3,636 10.7 28.4°
Drops below altitude 10° 12:50:15 10° 116° (ESE) 4,442 10.7 28.2°
Sets 12:57:28 0° 95° (E) 6,138 11.1 28.0°
